Wetterdaten: aktuell Donnerstag, 17.08.2017 23:29
Datum Zeit Temp. A. Feuchte A. Luftdruck Regen Wind Richtung Richtung Windben
17.08.2017 23:29 19,0 C 83 % 1019,2 hPa 0,0 l/m 0,0 km/h N-NW 346 0,0 km/h
17.08.2017 23:25 19,0 C 84 % 1019,2 hPa 0,0 l/m 0,0 km/h N-NW 346 0,0 km/h
17.08.2017 23:20 18,9 C 84 % 1019,2 hPa 0,0 l/m 0,0 km/h N-NW 346 0,0 km/h
17.08.2017 23:15 19,1 C 83 % 1019,2 hPa 0,0 l/m 0,0 km/h N-NW 346 0,0 km/h
17.08.2017 23:10 19,1 C 83 % 1019,2 hPa 0,0 l/m 0,0 km/h N-NW 346 0,0 km/h
17.08.2017 23:05 19,1 C 83 % 1019,3 hPa 0,0 l/m 0,0 km/h N 354 0,0 km/h
17.08.2017 23:00 19,1 C 83 % 1019,3 hPa 0,0 l/m 0,0 km/h N 7 0,0 km/h
17.08.2017 22:55 19,2 C 83 % 1019,2 hPa 0,0 l/m 0,0 km/h N 3 0,0 km/h
17.08.2017 22:50 19,2 C 83 % 1019,2 hPa 0,0 l/m 0,0 km/h N 3 0,0 km/h
17.08.2017 22:45 19,2 C 83 % 1019,2 hPa 0,0 l/m 0,0 km/h N 7 1,6 km/h
17.08.2017 22:40 19,2 C 83 % 1019,2 hPa 0,0 l/m 0,0 km/h N 7 0,0 km/h
17.08.2017 22:35 19,1 C 82 % 1019,2 hPa 0,0 l/m 0,0 km/h N 7 0,0 km/h
17.08.2017 22:30 19,1 C 83 % 1019,2 hPa 0,0 l/m 0,0 km/h N 7 0,0 km/h
17.08.2017 22:25 19,0 C 84 % 1019,2 hPa 0,0 l/m 0,0 km/h N 7 0,0 km/h
17.08.2017 22:20 19,0 C 84 % 1019,1 hPa 0,0 l/m 0,0 km/h N 7 0,0 km/h
17.08.2017 22:15 19,1 C 84 % 1019,1 hPa 0,0 l/m 0,0 km/h N 355 0,0 km/h
17.08.2017 22:10 19,2 C 83 % 1019,1 hPa 0,0 l/m 0,0 km/h N 354 0,0 km/h
17.08.2017 22:05 19,3 C 83 % 1019,1 hPa 0,0 l/m 0,0 km/h N 1 0,0 km/h
17.08.2017 22:00 19,4 C 83 % 1019,1 hPa 0,0 l/m 0,0 km/h N 1 0,0 km/h
17.08.2017 21:55 19,4 C 83 % 1019,1 hPa 0,0 l/m 0,0 km/h N 2 0,0 km/h
17.08.2017 21:50 19,6 C 83 % 1019,0 hPa 0,0 l/m 0,0 km/h N 355 0,0 km/h
17.08.2017 21:45 19,7 C 83 % 1019,1 hPa 0,0 l/m 0,0 km/h N 357 0,0 km/h
17.08.2017 21:40 19,7 C 84 % 1019,0 hPa 0,0 l/m 0,0 km/h N-NW 342 0,0 km/h
17.08.2017 21:35 19,7 C 84 % 1019,0 hPa 0,0 l/m 0,0 km/h N 7 0,0 km/h
17.08.2017 21:30 19,8 C 84 % 1019,0 hPa 0,0 l/m 0,0 km/h N 357 0,0 km/h
17.08.2017 21:25 19,8 C 84 % 1019,0 hPa 0,0 l/m 0,0 km/h N-NW 340 0,0 km/h
17.08.2017 21:20 19,7 C 84 % 1019,0 hPa 0,0 l/m 0,0 km/h N 359 0,0 km/h
17.08.2017 21:15 19,8 C 84 % 1019,0 hPa 0,0 l/m 0,0 km/h N 357 0,0 km/h
17.08.2017 21:10 19,9 C 84 % 1018,9 hPa 0,0 l/m 0,0 km/h N 7 0,0 km/h
17.08.2017 21:05 19,9 C 84 % 1018,9 hPa 0,0 l/m 0,0 km/h N-NO 17 0,0 km/h
17.08.2017 21:00 19,9 C 85 % 1018,9 hPa 0,0 l/m 0,0 km/h N 7 0,0 km/h
17.08.2017 20:55 19,9 C 85 % 1018,9 hPa 0,0 l/m 0,0 km/h N 350 0,0 km/h
17.08.2017 20:50 19,9 C 85 % 1018,8 hPa 0,0 l/m 0,0 km/h N 359 0,0 km/h
17.08.2017 20:45 19,9 C 85 % 1018,8 hPa 0,0 l/m 0,0 km/h N 7 0,0 km/h
17.08.2017 20:40 20,1 C 85 % 1018,8 hPa 0,0 l/m 0,0 km/h N 354 0,0 km/h
17.08.2017 20:35 20,1 C 85 % 1018,7 hPa 0,0 l/m 0,0 km/h N 7 0,0 km/h
17.08.2017 20:30 20,2 C 84 % 1018,7 hPa 0,0 l/m 0,0 km/h N 3 0,0 km/h
17.08.2017 20:25 20,3 C 85 % 1018,6 hPa 0,0 l/m 0,0 km/h N 350 0,0 km/h
17.08.2017 20:20 20,4 C 84 % 1018,5 hPa 0,0 l/m 0,0 km/h N 354 1,6 km/h
17.08.2017 20:15 20,6 C 84 % 1018,5 hPa 0,0 l/m 0,0 km/h N 359 0,0 km/h
17.08.2017 20:10 20,7 C 84 % 1018,4 hPa 0,0 l/m 0,0 km/h N 358 0,0 km/h
17.08.2017 20:05 20,7 C 84 % 1018,4 hPa 0,0 l/m 0,0 km/h N 354 1,6 km/h
17.08.2017 20:00 20,7 C 85 % 1018,3 hPa 0,0 l/m 0,0 km/h N-NW 337 0,0 km/h
17.08.2017 19:55 20,9 C 84 % 1018,3 hPa 0,0 l/m 0,0 km/h N 358 0,0 km/h
17.08.2017 19:50 21,1 C 84 % 1018,2 hPa 0,0 l/m 0,0 km/h N 350 0,0 km/h
17.08.2017 19:45 21,1 C 84 % 1018,2 hPa 0,0 l/m 0,0 km/h N 354 0,0 km/h
17.08.2017 19:40 21,2 C 84 % 1018,2 hPa 0,0 l/m 0,0 km/h N 356 0,0 km/h
17.08.2017 19:35 21,4 C 83 % 1018,1 hPa 0,0 l/m 0,0 km/h N 7 0,0 km/h
17.08.2017 19:30 21,6 C 82 % 1018,0 hPa 0,0 l/m 0,0 km/h N 7 0,0 km/h
17.08.2017 19:25 21,8 C 82 % 1018,1 hPa 0,0 l/m 0,0 km/h N 356 0,0 km/h
17.08.2017 19:20 21,8 C 82 % 1018,2 hPa 0,0 l/m 0,0 km/h N 7 0,0 km/h
17.08.2017 19:15 21,8 C 82 % 1018,2 hPa 0,0 l/m 0,0 km/h N 354 0,0 km/h
17.08.2017 19:10 21,9 C 83 % 1018,2 hPa 0,0 l/m 0,0 km/h N 351 0,0 km/h
17.08.2017 19:05 22,2 C 82 % 1018,1 hPa 0,0 l/m 0,0 km/h N 1 0,0 km/h
17.08.2017 19:00 22,4 C 81 % 1018,1 hPa 0,0 l/m 0,0 km/h N 360 0,0 km/h
17.08.2017 18:55 22,6 C 81 % 1018,0 hPa 0,0 l/m 0,0 km/h N 354 0,0 km/h
17.08.2017 18:50 22,6 C 81 % 1018,0 hPa 0,0 l/m 0,0 km/h N-NW 348 0,0 km/h
17.08.2017 18:45 22,6 C 81 % 1018,0 hPa 0,0 l/m 0,0 km/h N-NW 341 0,0 km/h
17.08.2017 18:40 22,6 C 81 % 1018,0 hPa 0,0 l/m 0,0 km/h N 2 0,0 km/h
17.08.2017 18:35 22,7 C 80 % 1018,0 hPa 0,0 l/m 0,0 km/h N 355 0,0 km/h
17.08.2017 18:30 22,7 C 79 % 1018,0 hPa 0,0 l/m 0,0 km/h N 360 0,0 km/h
17.08.2017 18:25 22,8 C 77 % 1018,0 hPa 0,0 l/m 0,0 km/h N 353 0,0 km/h
17.08.2017 18:20 23,3 C 76 % 1018,0 hPa 0,0 l/m 0,0 km/h N-NW 338 0,0 km/h
17.08.2017 18:15 24,1 C 72 % 1017,9 hPa 0,0 l/m 0,0 km/h N 357 0,0 km/h
17.08.2017 18:10 24,4 C 67 % 1018,0 hPa 0,0 l/m 0,0 km/h N 350 0,0 km/h
17.08.2017 18:05 24,7 C 66 % 1018,0 hPa 0,0 l/m 0,0 km/h N-NW 333 0,0 km/h
17.08.2017 18:00 25,2 C 65 % 1018,0 hPa 0,0 l/m 0,0 km/h N-NW 329 0,0 km/h
17.08.2017 17:55 25,5 C 62 % 1018,0 hPa 0,0 l/m 0,0 km/h W-SW 250 0,0 km/h
17.08.2017 17:50 25,9 C 64 % 1018,0 hPa 0,0 l/m 0,0 km/h W-SW 250 0,0 km/h
17.08.2017 17:45 26,1 C 62 % 1018,0 hPa 0,0 l/m 0,0 km/h W-SW 250 0,0 km/h
17.08.2017 17:40 26,4 C 62 % 1018,0 hPa 0,0 l/m 0,0 km/h W-SW 250 0,0 km/h
17.08.2017 17:35 26,7 C 60 % 1018,0 hPa 0,0 l/m 0,0 km/h W-SW 250 0,0 km/h
17.08.2017 17:30 27,0 C 63 % 1018,0 hPa 0,0 l/m 0,0 km/h W-SW 250 0,0 km/h
17.08.2017 17:25 27,2 C 63 % 1018,1 hPa 0,0 l/m 0,0 km/h W-SW 250 0,0 km/h
17.08.2017 17:20 27,4 C 64 % 1018,1 hPa 0,0 l/m 0,0 km/h W-SW 250 0,0 km/h
17.08.2017 17:15 27,3 C 62 % 1018,1 hPa 0,0 l/m 0,0 km/h W-SW 250 0,0 km/h
17.08.2017 17:10 27,1 C 63 % 1018,2 hPa 0,0 l/m 0,0 km/h W-SW 250 0,0 km/h
17.08.2017 17:05 27,1 C 62 % 1018,2 hPa 0,0 l/m 0,0 km/h W-SW 250 0,0 km/h
17.08.2017 17:00 27,2 C 66 % 1018,3 hPa 0,0 l/m 0,0 km/h W-SW 245 0,0 km/h
17.08.2017 16:55 27,1 C 61 % 1018,3 hPa 0,0 l/m 0,0 km/h W-SW 244 0,0 km/h
17.08.2017 16:50 27,2 C 58 % 1018,4 hPa 0,0 l/m 0,0 km/h SO 144 0,0 km/h
17.08.2017 16:45 27,2 C 55 % 1018,4 hPa 0,0 l/m 0,0 km/h SO 144 0,0 km/h
17.08.2017 16:40 27,1 C 57 % 1018,4 hPa 0,0 l/m 0,0 km/h SO 144 0,0 km/h
17.08.2017 16:35 27,2 C 58 % 1018,3 hPa 0,0 l/m 0,0 km/h SW 217 0,0 km/h
17.08.2017 16:30 27,1 C 64 % 1018,4 hPa 0,0 l/m 0,0 km/h SW 217 0,0 km/h
17.08.2017 16:25 27,1 C 59 % 1018,5 hPa 0,0 l/m 0,0 km/h NW 318 0,0 km/h
17.08.2017 16:20 27,1 C 55 % 1018,5 hPa 0,0 l/m 0,0 km/h W-NW 291 0,0 km/h
17.08.2017 16:15 27,1 C 57 % 1018,5 hPa 0,0 l/m 0,0 km/h W-NW 291 0,0 km/h
17.08.2017 16:10 27,0 C 64 % 1018,6 hPa 0,0 l/m 0,0 km/h W-NW 291 0,0 km/h
17.08.2017 16:05 27,2 C 61 % 1018,6 hPa 0,0 l/m 0,0 km/h W-NW 291 0,0 km/h
17.08.2017 16:00 27,1 C 55 % 1018,7 hPa 0,0 l/m 0,0 km/h W-NW 293 0,0 km/h
17.08.2017 15:55 26,9 C 62 % 1018,7 hPa 0,0 l/m 0,0 km/h W-NW 293 0,0 km/h
17.08.2017 15:50 26,6 C 68 % 1018,7 hPa 0,0 l/m 0,0 km/h W-NW 293 0,0 km/h
17.08.2017 15:45 26,4 C 58 % 1018,7 hPa 0,0 l/m 0,0 km/h W-NW 293 0,0 km/h
17.08.2017 15:40 26,3 C 61 % 1018,8 hPa 0,0 l/m 0,0 km/h W-NW 289 0,0 km/h
17.08.2017 15:35 26,5 C 63 % 1018,9 hPa 0,0 l/m 0,0 km/h SO 133 0,0 km/h
17.08.2017 15:30 26,4 C 62 % 1018,9 hPa 0,0 l/m 0,0 km/h W-NW 294 0,0 km/h
_ Min-Zeit 06:35 16:00 18:15 - 00:00 - - 00:00
Minimum _ 13,8 C 55 % 1017,9 hPa - 0,0 km/h - - 0,0 km/h
_ Max-Zeit 17:20 07:35 00:00 00:00 00:00 - - 09:30
Maximum _ 27,4 C 98 % 1021,3 hPa 0,0 l/m 0,0 km/h
N-NW
- - 1,6 km/h
O-SO
Durchschnitt _ 20,2 C 82 % 1019,9 hPa #0,0 l/m 0,0 km/h - - - 0,0 km/h